AAUSAT2
1 32788U 08021F 16216.81980822 .00000717 00000-0 73608-4 0 9996
2 32788 97.6000 258.1121 0013726 109.3430 250.9276 14.93308856448308
DO-64
1 32789U 08021G 16217.71814377 .00002648 00000-0 19853-3 0 9994
2 32789 97.6019 276.0901 0014363 97.5180 262.7678 15.03453708449297
CO-66
1 32791U 08021J 16216.80861486 .00000379 00000-0 44950-4 0 9995
2 32791 097.6002 252.3607 0014967 124.5645 235.6988 14.89833270447806
RS-30
1 32953U 08025A 16217.81635370 .00000028 00000-0 13165-3 0 9996
2 32953 82.5009 76.4123 0018067 256.5412 103.3655 12.43070611372110
JUGNU
1 37839U 11058B 16217.33728376 .00000304 00000-0 20026-4 0 9992
2 37839 19.9601 211.6332 0018746 291.0570 201.8611 14.12547701248843
SRMSAT
1 37841U 11058D 16216.52729273 .00000315 00000-0 27800-4 0 9991
2 37841 19.9711 251.7013 0011724 191.2366 319.7021 14.10546146248385
AO-71
1 37854U 11061E 16217.78676051 .00001238 00000-0 76552-4 0 9996
2 37854 101.7017 284.9166 0172248 290.3937 67.8846 15.02427258259392
HRBE
1 37855U 11061F 16217.77424380 .00001118 00000-0 68792-4 0 9996
2 37855 101.7149 282.9345 0185490 295.0154 63.1895 15.01358491259284
HORYU-2
1 38340U 12025D 16217.19887950 .00000319 00000-0 55516-4 0 9991
2 38340 98.3580 204.3028 0010796 214.5991 145.4515 14.75074790226555
RS-40
1 38735U 12041C 16217.85748739 .00000011 00000-0 10047-4 0 9990
2 38735 82.4778 161.4281 0017297 1.9828 358.1317 12.42572375182402
BEESAT-3
1 39134U 13015E 16217.20316583 .00002185 00000-0 12248-3 0 9991
2 39134 64.8693 168.3651 0011954 296.5591 63.4309 15.16185571181392
BEESAT-2
1 39136U 13015G 16217.21970795 .00001732 00000-0 10584-3 0 9993
2 39136 64.8701 174.9134 0011178 302.2233 57.7806 15.13807593181276
ZACUBE-1
1 39417U 13066B 16217.40220446 .00000324 00000-0 47962-4 0 9990
2 39417 97.6760 268.2054 0058607 224.3140 135.3374 14.80439728145901
TRITON-1
1 39427U 13066M 16217.64578753 .00000233 00000-0 45975-4 0 9995
2 39427 97.6643 247.8470 0113177 282.4504 76.4056 14.67227834144628
GOMX-1
1 39430U 13066Q 16217.75422240 .00000205 00000-0 46837-4 0 9997
2 39430 97.6677 235.0028 0151588 322.8019 36.2736 14.58639093143807
LO-74
1 39440U 13066AA 16217.64887095 .00000274 00000-0 46003-4 0 9990
2 39440 97.6698 260.2317 0079690 246.2083 113.0757 14.75200001145424
SPROUT
1 39770U 14029E 16217.79734548 .00000727 00000-0 90510-4 0 9991
2 39770 97.8739 314.4837 0007945 286.3614 73.6738 14.85499839119157
EO-80
1 40032U 14033Y 16217.69765829 .00000377 00000-0 47620-4 0 9999
2 40032 97.9224 122.5568 0010579 258.5427 101.4601 14.87632973115389
VELOX-1
1 40057U 14034E 16217.78154920 .00000304 00000-0 50980-4 0 9994
2 40057 98.1946 307.3110 0011205 359.2545 0.8655 14.76765320113057
DAURIA DX 1
1 40071U 14037C 16217.79008030 .00000094 00000-0 19609-4 0 9993
2 40071 98.3318 310.5729 0008755 358.2525 1.8666 14.80845690112149
UKUBE-1
1 40074U 14037F 16217.85443416 .00000278 00000-0 41292-4 0 9991
2 40074 98.3370 312.9825 0004822 7.7859 352.3452 14.83132262112289
HODOYOSHI-1
1 40299U 14070B 16217.81343541 .00000774 00000-0 37457-4 0 9990
2 40299 97.4291 299.0556 0014854 117.2127 30.4647 15.21442672 96820
CHUBUSAT-1
1 40300U 14070C 16217.80333997 .00000908 00000-0 45174-4 0 9990
2 40300 97.4241 297.1383 0022304 125.3763 352.5207 15.19962675 96715
QSAT-EOS
1 40301U 14070D 16217.78572203 .00001751 00000-0 80372-4 0 9999
2 40301 97.4186 296.5163 0030383 125.7226 22.9424 15.21351177 96695
FIREBIRD FU3
1 40377U 15003B 16217.81803859 .00001737 00000-0 82034-4 0 9998
2 40377 99.0908 333.8887 0142473 329.5708 29.7304 15.12871457 83134
FIREBIRD FU4
1 40378U 15003C 16217.81407784 .00001720 00000-0 81209-4 0 9991
2 40378 99.0910 333.9006 0142684 329.5260 29.7729 15.12881953 83132
GRIFEX
1 40379U 15003D 16217.80818175 .00001340 00000-0 67077-4 0 9996
2 40379 99.0917 332.8931 0146943 333.6087 25.7704 15.11044975 83076
NO-84
1 40654U 15025D 16216.31527500 .00004097 00000-0 93469-4 0 01910
2 40654 054.9968 210.2142 0204092 189.3983 170.3143 15.26619509031234
NO-83
1 40655U 15025E 16216.32880835 .00003902 00000-0 82266-4 0 02104
2 40655 054.9845 202.1157 0184012 192.9104 166.7121 15.32033349031323
DEORBITSAIL
1 40719U 15032E 16217.23172182 .00000599 00000-0 95138-4 0 9998
2 40719 98.0112 108.4296 0018206 82.4909 277.8368 14.75612261 57573
NUDT-PHONESAT
1 40900U 15049B 16217.84243205 .00003244 00000-0 16644-3 0 9994
2 40900 97.4447 224.7165 0013256 244.2574 115.7291 15.17175365 48450
XW-2D
1 40907U 15049J 16217.82544374 .00001010 00000-0 59524-4 0 9994
2 40907 97.4505 223.7182 0013763 223.1463 136.8691 15.13766085 48365
XW-2F
1 40910U 15049M 16217.84365307 .00001439 00000-0 82038-4 0 9998
2 40910 97.4535 223.9765 0014780 221.9166 138.0936 15.14276985 48268
XW-2B
1 40911U 15049N 16217.82550100 .00000980 00000-0 57905-4 0 9999
2 40911 97.4552 223.9201 0013656 223.3334 136.6825 15.13747323 48266
DCBB
1 40912U 15049P 16217.73210197 .00001180 00000-0 64356-4 0 9990
2 40912 97.4522 224.7788 0015061 218.2444 229.1113 15.16234515 48311
TW-1C
1 40926U 15051B 16217.71486734 .00004770 00000-0 13301-3 0 9999
2 40926 97.2720 254.1186 0012586 227.5429 271.7261 15.37171893 48216
TW-1A
1 40928U 15051D 16217.82417977 .00002200 00000-0 69986-4 0 9993
2 40928 97.2664 253.1136 0012287 250.6200 195.5548 15.33604337 48177
IO-86
1 40931U 15052B 16217.71481419 .00000674 00000-0 49976-5 0 9999
2 40931 6.0004 329.1362 0012823 83.7511 276.4109 14.76471704 46118
GomX-3
1 40949U 98067HA 16217.81900844 .00097608 00000-0 38797-3 0 9994
2 40949 51.6285 141.5959 0003400 78.6255 281.5130 15.85885112 47767
LQSat
1 40958U 15057A 16217.74914450 .00000023 00000-0 11396-4 0 9994
2 40958 98.0122 291.9986 0018502 3.5163 356.6162 14.72884936 44535
AO-85
1 40967U 15058D 16216.17466948 .00000345 00000-0 55447-4 0 02079
2 40967 064.7806 103.3572 0201649 190.0332 169.6794 14.75072857030203
ATHENOXAT-1
1 41168U 15077C 16217.59361067 .00001847 00000-0 70166-4 0 9998
2 41168 14.9843 319.9903 0013395 313.1457 157.7923 15.10159099 35080
ChubuSat-2
1 41338U 16012B 16216.71790734 .00000426 00000-0 26975-4 0 9998
2 41338 31.0040 328.1066 0013908 157.7313 202.3928 14.99434621 25290
ChubuSat-3
1 41339U 16012C 16217.69013237 .00000389 00000-0 23924-4 0 9992
2 41339 31.0107 321.6197 0013689 173.8312 186.2491 14.99663017 25414
Horyu-4
1 41340U 16012D 16217.64799303 .00000714 00000-0 49008-4 0 9997
2 41340 31.0059 321.2084 0014232 178.2887 181.7799 15.00100472 25431
OUFTI-1
1 41458U 16025C 16217.40751654 .00000419 00000-0 28622-4 0 9993
2 41458 98.2023 230.6580 0175552 266.6581 91.4552 15.01308351 15011
e-st@r-II
1 41459U 16025D 16217.80774086 .00000341 00000-0 24350-4 0 9990
2 41459 98.2032 231.0769 0175053 265.1868 92.9348 15.01280385 15075
AAUSAT4
1 41460U 16025E 16217.73153718 .00001881 00000-0 10981-3 0 9991
2 41460 98.1996 231.0031 0174161 265.3772 92.7564 15.01560036 15063
MinXSS
1 41474U 98067HU 16217.79236561 .00033944 00000-0 42607-3 0 9991
2 41474 51.6406 173.9748 0003806 24.9202 335.2496 15.59044818 12515
CADRE
1 41475U 98067HV 16217.87511923 .00044830 00000-0 52630-3 0 9992
2 41475 51.6398 173.0150 0003416 42.7935 317.3324 15.61009111 12535
NODES 1
1 41477U 98067HX 16217.88302376 .00021129 00000-0 28083-3 0 9996
2 41477 51.6398 173.8201 0001679 7.3685 352.7332 15.58145826 12431
NODES 2
1 41478U 98067HY 16217.88467671 .00020674 00000-0 27542-3 0 9990
2 41478 51.6397 173.8301 0001651 8.7321 351.3699 15.58099452 12438
